Date String (YYYY-MM-DD hh:mm:ss) UTC,Instrument flags,Ambient pressure (hPa),Sample flow (lpm),Bypass flow (lpm),Sample temperature (°C),Ambient temperature (°C),ASC tube jacket temperature (°C),LED temperature (°C),Box temperature (°C),Sample RH (%),Span deviation,Mass concentration (μg/m³),Mass concentration (μg/m³),Mass concentration (μg/m³)
DateTimeUTC,F1_M11,P_M11,Q1_M11,Q2_M11,T1_M11,T2_M11,T3_M11,T4_M11,T5_M11,U1_M11,ZSPAN_M11,X0_M11,X2_M11,X1_M11
2022-03-12 05:00:00,,0827.4,4.99,0.00,22.5,21.7,00.0,31.6,24.3,07.5,0000.0,0009.80,0005.11,0004.26
2022-03-12 05:01:00,,0827.4,5.01,0.00,22.5,21.6,00.0,31.6,24.2,07.6,0000.0,0009.82,0005.12,0004.26
2022-03-12 05:02:00,,0827.7,5.00,0.00,22.5,21.6,00.0,31.5,24.2,07.6,0000.0,0009.71,0005.10,0004.25
2022-03-12 05:03:00,,0827.1,4.99,0.00,22.5,21.6,00.0,31.5,24.2,07.6,0000.0,0009.99,0005.18,0004.26
2022-03-12 05:04:00,,0827.3,5.00,0.00,22.4,21.6,00.0,31.5,24.1,07.5,0000.1,0010.41,0005.22,0004.28
2022-03-12 05:05:00,,0827.2,5.00,0.00,22.4,21.5,00.0,31.5,24.1,07.5,0003.7,0010.80,0005.23,0004.29
2022-03-12 05:06:00,,0827.1,5.01,0.00,22.4,21.5,00.0,31.5,24.1,07.4,0004.6,0011.41,0005.24,0004.32
2022-03-12 05:07:00,,0827.1,5.00,0.00,22.4,21.8,00.0,31.5,24.1,07.5,0004.8,0011.94,0005.28,0004.35
2022-03-12 05:08:00,,0827.5,5.00,0.00,22.5,22.5,00.0,31.5,24.4,07.5,0004.7,0012.08,0005.32,0004.38
2022-03-12 05:09:00,,0827.3,5.00,0.00,22.6,23.1,00.0,31.5,24.6,07.4,0004.5,0011.65,0005.37,0004.41
2022-03-12 05:10:00,,0827.3,5.01,0.00,22.7,23.0,00.0,31.6,24.7,07.4,0004.6,0011.88,0005.44,0004.45
2022-03-12 05:11:00,,0827.3,5.00,0.00,22.7,22.8,00.0,31.6,24.6,07.4,0004.7,0012.00,0005.46,0004.49
2022-03-12 05:12:00,,0827.2,5.00,0.00,22.7,22.5,00.0,31.6,24.6,07.5,0001.0,0012.61,0005.45,0004.50
2022-03-12 05:13:00,,0827.5,5.02,0.00,22.7,22.4,00.0,31.6,24.5,07.5,0000.0,0013.10,0005.52,0004.54
2022-03-12 05:14:00,,0827.3,4.99,0.00,22.7,22.2,00.0,31.6,24.5,07.5,0001.9,0013.07,0005.52,0004.57
2022-03-12 05:15:00,,0827.2,5.00,0.00,22.7,22.1,00.0,31.6,24.4,07.6,0000.7,0012.91,0005.51,0004.56
2022-03-12 05:16:00,,0827.4,4.99,0.00,22.6,22.0,00.0,31.6,24.3,07.6,0000.0,0013.19,0005.49,0004.55
2022-03-12 05:17:00,,0827.2,5.00,0.00,22.6,21.9,00.0,31.6,24.3,07.6,0000.0,0012.87,0005.48,0004.53
2022-03-12 05:18:00,,0827.4,5.01,0.00,22.6,21.8,00.0,31.6,24.3,07.7,0000.0,0012.35,0005.46,0004.51
2022-03-12 05:19:00,,0827.6,4.99,0.00,22.6,21.8,00.0,31.6,24.2,07.8,0000.0,0012.83,0005.40,0004.49
2022-03-12 05:20:00,,0827.2,4.99,0.00,22.5,21.7,00.0,31.6,24.2,07.8,0000.0,0012.91,0005.32,0004.47
2022-03-12 05:21:00,,0827.0,5.00,0.00,22.5,21.6,00.0,31.5,24.2,07.9,0000.0,0012.65,0005.23,0004.45
2022-03-12 05:22:00,,0827.0,5.00,0.00,22.4,21.6,00.0,31.5,24.1,08.0,0000.0,0012.49,0005.22,0004.45
2022-03-12 05:23:00,,0827.0,4.99,0.00,22.4,21.5,00.0,31.5,24.1,08.0,0000.0,0012.13,0005.23,0004.46
2022-03-12 05:24:00,,0827.0,5.01,0.00,22.4,21.6,00.0,31.5,24.0,08.1,0000.0,0012.55,0005.21,0004.45
2022-03-12 05:25:00,,0826.9,4.99,0.00,22.4,22.1,00.0,31.5,24.2,08.0,0000.0,0013.13,0005.19,0004.43
2022-03-12 05:26:00,,0826.9,5.00,0.00,22.6,22.8,00.0,31.5,24.5,07.9,0000.0,0013.71,0005.16,0004.42
2022-03-12 05:27:00,,0827.0,4.99,0.00,22.7,23.2,00.0,31.6,24.7,07.9,0000.0,0013.84,0005.16,0004.43
2022-03-12 05:28:00,,0827.0,5.00,0.00,22.7,22.9,00.0,31.6,24.7,07.9,0000.0,0013.53,0005.12,0004.42
2022-03-12 05:29:00,,0826.9,5.01,0.00,22.7,22.7,00.0,31.6,24.6,07.8,0000.0,0013.86,0005.09,0004.42
2022-03-12 05:30:00,,0827.1,5.00,0.00,22.7,22.5,00.0,31.6,24.5,07.8,0000.0,0013.71,0005.10,0004.42
2022-03-12 05:31:00,,0827.0,4.99,0.00,22.7,22.3,00.0,31.6,24.4,07.9,0000.0,0013.63,0005.10,0004.42
2022-03-12 05:32:00,,0826.8,5.00,0.00,22.6,22.1,00.0,31.6,24.3,07.9,0000.0,0013.59,0005.09,0004.40
2022-03-12 05:33:00,,0826.8,5.01,0.00,22.6,22.0,00.0,31.6,24.3,07.8,0000.0,0013.48,0005.02,0004.35
2022-03-12 05:34:00,,0827.0,5.00,0.00,22.6,21.9,00.0,31.6,24.2,07.8,0000.0,0013.06,0004.96,0004.29
2022-03-12 05:35:00,,0826.8,5.01,0.00,22.5,21.8,00.0,31.6,24.2,07.9,0000.0,0012.10,0004.91,0004.26
2022-03-12 05:36:00,,0826.8,5.00,0.00,22.5,21.7,00.0,31.6,24.2,07.9,0000.0,0011.29,0004.84,0004.23
2022-03-12 05:37:00,,0826.8,5.00,0.00,22.5,21.7,00.0,31.6,24.2,07.9,0000.0,0010.41,0004.80,0004.22
2022-03-12 05:38:00,,0826.7,5.01,0.00,22.5,21.6,00.0,31.5,24.2,07.9,0000.0,0009.47,0004.74,0004.18
2022-03-12 05:39:00,,0826.7,5.00,0.00,22.4,21.6,00.0,31.5,24.1,07.9,0000.0,0009.47,0004.75,0004.17
2022-03-12 05:40:00,,0826.7,5.00,0.00,22.4,21.6,00.0,31.5,24.1,07.8,0000.0,0009.09,0004.73,0004.14
2022-03-12 05:41:00,,0826.8,5.00,0.00,22.4,21.8,00.0,31.5,24.1,07.8,0000.0,0008.40,0004.69,0004.11
2022-03-12 05:42:00,,0826.8,5.00,0.00,22.5,22.5,00.0,31.5,24.4,07.8,0000.0,0008.09,0004.66,0004.08
2022-03-12 05:43:00,,0826.8,5.00,0.00,22.7,23.2,00.0,31.6,24.6,07.8,0000.0,0008.22,0004.69,0004.07
2022-03-12 05:44:00,,0826.8,4.99,0.00,22.8,23.2,00.0,31.6,24.7,07.7,0000.0,0009.30,0004.68,0004.08
2022-03-12 05:45:00,,0826.7,5.00,0.00,22.8,23.0,00.0,31.6,24.7,07.7,0000.0,0009.50,0004.72,0004.08
2022-03-12 05:46:00,,0826.6,5.00,0.00,22.8,22.8,00.0,31.6,24.6,07.6,0000.0,0009.65,0004.76,0004.07
2022-03-12 05:47:00,,0826.6,5.00,0.00,22.8,22.5,00.0,31.6,24.6,07.6,0000.0,0009.91,0004.79,0004.07
2022-03-12 05:48:00,,0826.6,5.00,0.00,22.7,22.4,00.0,31.6,24.5,07.6,0000.0,0010.20,0004.83,0004.06
2022-03-12 05:49:00,,0826.6,5.00,0.00,22.7,22.2,00.0,31.6,24.4,07.6,0000.0,0010.28,0004.84,0004.05
2022-03-12 05:50:00,,0826.6,5.03,0.00,22.7,22.1,00.0,31.6,24.4,07.6,0000.0,0010.30,0004.81,0004.04
2022-03-12 05:51:00,,0826.6,4.99,0.00,22.7,22.0,00.0,31.6,24.4,07.5,0000.3,0010.22,0004.78,0004.03
2022-03-12 05:52:00,,0826.6,4.99,0.00,22.6,21.9,00.0,31.6,24.3,07.6,0001.3,0010.15,0004.77,0004.03
2022-03-12 05:53:00,,0826.6,4.99,0.00,22.6,21.9,00.0,31.6,24.3,07.6,0001.2,0010.09,0004.74,0004.03
2022-03-12 05:54:00,,0826.6,5.01,0.00,22.6,21.8,00.0,31.6,24.3,07.6,0000.5,0010.50,0004.67,0004.01
2022-03-12 05:55:00,,0826.6,5.00,0.00,22.6,21.8,00.0,31.6,24.3,07.6,-000.1,0009.75,0004.68,0004.00
2022-03-12 05:56:00,,0826.6,4.99,0.00,22.5,21.7,00.0,31.6,24.2,07.7,0001.2,0009.65,0004.66,0003.99
2022-03-12 05:57:00,,0826.5,4.99,0.00,22.5,21.6,00.0,31.6,24.1,07.7,0001.4,0009.46,0004.60,0003.98
2022-03-12 05:58:00,,0826.5,5.01,0.00,22.5,21.6,00.0,31.5,24.1,07.7,0001.5,0009.09,0004.55,0003.95
2022-03-12 05:59:00,,0826.5,4.99,0.00,22.4,21.5,00.0,31.5,24.1,07.7,0002.3,0008.84,0004.51,0003.92
